Location: Unspecified
(52.0000°N, 4.4000°E)
Time: 00:16:09
(UTC+00:00)

Cosmos 1805 - Pass Details

Date: 14 May 2025
Orbit: 448 x 453 km, 82.5° (Epoch: 15 June)

Event Time Altitude Azimuth Distance (km) Brightness Sun altitude
Rises 22:04:09 0° 352° (N) 2,473 8.2 -16.2°
Reaches altitude 10° 22:06:16 10° 357° (N) 1,593 6.8 -16.3°
Maximum altitude 22:09:41 54° 76° (ENE) 555 3.2 -16.5°
Enters shadow 22:10:39 38° 130° (SE) 699 3.4 -16.6°
